EW6895 Weather Reports


time (UTC)temp
F
wind
direction
speed
knots
gust
knots
rain 1hr
in
rain 24hr
in
rain mn
in
humidity
%
barometer
mb
20220627201333 92 18 0.9 7.8 0.00 0.00 0.00 53 1018.7
20220627200826 93 18 0.9 7.8 0.00 0.00 0.00 53 1018.7
20220627200321 93 18 1.7 7.0 0.00 0.00 0.00 52 1018.8
20220627195819 92 18 0.9 7.0 0.00 0.00 0.00 53 1018.8
20220627195315 92 18 0.9 7.0 0.00 0.00 0.00 53 1018.8
20220627194831 92 18 0.0 3.5 0.00 0.00 0.00 55 1018.9
20220627194322 92 18 0.9 7.0 0.00 0.00 0.00 54 1018.9
20220627193818 92 18 1.7 7.0 0.00 0.00 0.00 54 1019.0
20220627193333 92 18 0.0 5.2 0.00 0.00 0.00 55 1019.0
20220627192827 91 18 0.0 5.2 0.00 0.00 0.00 56 1019.0
20220627192326 91 18 0.9 8.7 0.00 0.00 0.00 54 1019.1
20220627191821 91 18 0.9 8.7 0.00 0.00 0.00 55 1019.2
20220627191316 91 18 0.9 4.3 0.00 0.00 0.00 56 1019.2
20220627190832 91 18 0.9 4.3 0.00 0.00 0.00 57 1019.3
20220627190325 90 18 0.9 5.2 0.00 0.00 0.00 57 1019.4
20220627185820 89 18 0.9 7.0 0.00 0.00 0.00 59 1019.5
20220627185315 89 18 1.7 7.0 0.00 0.00 0.00 58 1019.6
20220627184813 90 18 0.0 7.0 0.00 0.00 0.00 57 1019.6
20220627184327 90 18 0.9 4.3 0.00 0.00 0.00 56 1019.8
20220627183822 90 18 0.0 7.0 0.00 0.00 0.00 56 1019.7
20220627183315 90 18 0.9 7.0 0.00 0.00 0.00 56 1019.7
20220627182831 90 18 0.9 4.3 0.00 0.00 0.00 56 1019.8
20220627182325 90 18 0.0 4.3 0.00 0.00 0.00 57 1020.0
20220627181820 90 18 0.0 4.3 0.00 0.00 0.00 57 1020.1
20220627181315 90 18 0.0 4.3 0.00 0.00 0.00 56 1020.2
20220627180815 90 18 0.0 4.3 0.00 0.00 0.00 56 1020.1
20220627180330 91 18 0.9 4.3 0.00 0.00 0.00 56 1020.3
20220627175822 91 18 0.9 4.3 0.00 0.00 0.00 56 1020.3
20220627175317 91 18 0.0 2.6 0.00 0.00 0.00 56 1020.3
20220627174833 91 18 0.0 3.5 0.00 0.00 0.00 55 1020.4
20220627174323 91 18 0.0 3.5 0.00 0.00 0.00 56 1020.4
20220627173818 90 18 0.0 3.5 0.00 0.00 0.00 57 1020.3
20220627173316 90 18 0.0 3.5 0.00 0.00 0.00 57 1020.4
20220627172833 90 18 0.0 2.6 0.00 0.00 0.00 58 1020.5
20220627172325 89 18 0.0 2.6 0.00 0.00 0.00 59 1020.5
20220627171821 89 18 0.0 4.3 0.00 0.00 0.00 59 1020.5
20220627171315 89 18 0.0 4.3 0.00 0.00 0.00 60 1020.6
20220627170829 88 18 0.0 2.6 0.00 0.00 0.00 59 1020.6
20220627170323 88 18 0.0 0.9 0.00 0.00 0.00 59 1020.6
20220627165819 88 18 0.0 0.9 0.00 0.00 0.00 58 1020.6
20220627165318 88 18 0.0 3.5 0.00 0.00 0.00 59 1020.7
20220627164813 87 18 0.9 3.5 0.00 0.00 0.00 59 1020.7
20220627164327 87 18 0.0 2.6 0.00 0.00 0.00 59 1020.7
20220627163820 87 18 0.0 1.7 0.00 0.00 0.00 59 1020.7
20220627163315 87 18 0.0 2.6 0.00 0.00 0.00 58 1020.8
20220627162829 87 18 0.0 3.5 0.00 0.00 0.00 59 1020.7
20220627162325 87 18 0.9 3.5 0.00 0.00 0.00 58 1020.7
20220627161824 87 18 0.0 5.2 0.00 0.00 0.00 59 1020.7
20220627161318 87 18 0.9 5.2 0.00 0.00 0.00 58 1020.8
20220627160813 87 18 0.0 3.5 0.00 0.00 0.00 58 1020.7
20220627160327 87 18 0.0 7.0 0.00 0.00 0.00 58 1020.7
20220627155822 86 18 0.9 7.0 0.00 0.00 0.00 58 1020.8
20220627155316 86 18 0.0 5.2 0.00 0.00 0.00 57 1020.8
20220627154812 87 18 0.0 3.5 0.00 0.00 0.00 57 1020.7
20220627154326 86 18 0.9 4.3 0.00 0.00 0.00 57 1020.8
20220627153825 86 18 0.0 4.3 0.00 0.00 0.00 59 1020.9
20220627153319 86 18 0.9 7.0 0.00 0.00 0.00 59 1020.9
20220627152814 85 18 1.7 7.0 0.00 0.00 0.00 59 1020.8
20220627152332 84 18 0.0 2.6 0.00 0.00 0.00 61 1020.8
20220627151825 83 18 0.0 2.6 0.00 0.00 0.00 61 1020.8
20220627151320 83 18 0.0 2.6 0.00 0.00 0.00 60 1020.8
20220627150816 83 18 0.0 1.7 0.00 0.00 0.00 61 1020.9
20220627150333 83 18 0.0 3.5 0.00 0.00 0.00 62 1020.9
20220627145825 82 18 0.0 3.5 0.00 0.00 0.00 64 1020.9
20220627145320 81 18 0.0 3.5 0.00 0.00 0.00 64 1020.9
20220627144816 80 18 0.0 3.5 0.00 0.00 0.00 65 1020.9
20220627144331 80 18 0.0 5.2 0.00 0.00 0.00 65 1020.9
20220627143824 80 18 0.9 5.2 0.00 0.00 0.00 64 1021.0
20220627143318 80 18 0.9 5.2 0.00 0.00 0.00 64 1020.9
20220627142815 80 18 0.0 2.6 0.00 0.00 0.00 64 1021.0
20220627142332 79 18 0.0 3.5 0.00 0.00 0.00 64 1021.0
20220627141825 79 18 0.0 3.5 0.00 0.00 0.00 65 1021.0
20220627141320 78 18 0.0 3.5 0.00 0.00 0.00 65 1021.0
20220627140815 78 18 0.0 3.5 0.00 0.00 0.00 64 1020.9
20220627140330 78 18 0.0 2.6 0.00 0.00 0.00 64 1020.9
20220627135822 78 18 0.9 2.6 0.00 0.00 0.00 63 1020.9
20220627135317 78 18 0.0 5.2 0.00 0.00 0.00 64 1020.8
20220627134815 78 18 0.9 4.3 0.00 0.00 0.00 64 1020.9
20220627134332 78 18 0.0 3.5 0.00 0.00 0.00 65 1020.8
20220627133823 77 18 0.0 2.6 0.00 0.00 0.00 65 1020.8
20220627133316 77 18 0.0 2.6 0.00 0.00 0.00 65 1020.8
20220627132830 77 18 0.0 2.6 0.00 0.00 0.00 65 1020.8
20220627132324 77 18 0.0 1.7 0.00 0.00 0.00 65 1020.8
20220627131818 76 18 0.0 3.5 0.00 0.00 0.00 65 1020.8
20220627131317 76 18 0.0 7.8 0.00 0.00 0.00 65 1020.7
20220627130832 76 18 0.0 7.8 0.00 0.00 0.00 65 1020.6
20220627130327 76 18 0.9 7.0 0.00 0.00 0.00 65 1020.6
20220627125821 76 18 0.9 5.2 0.00 0.00 0.00 65 1020.6
20220627125315 75 14 0.0 7.8 0.00 0.00 0.00 66 1020.5
20220627124813 75 14 1.7 7.8 0.00 0.00 0.00 66 1020.5
20220627124325 75 14 0.9 4.3 0.00 0.00 0.00 66 1020.4
20220627123820 75 18 0.9 3.5 0.00 0.00 0.00 65 1020.5
20220627123318 75 14 0.9 3.5 0.00 0.00 0.00 65 1020.3
20220627122813 75 14 0.0 4.3 0.00 0.00 0.00 66 1020.3
20220627122327 75 14 0.0 4.3 0.00 0.00 0.00 66 1020.2
20220627121823 75 14 0.0 7.8 0.00 0.00 0.00 66 1020.1
20220627121315 75 14 0.0 7.8 0.00 0.00 0.00 65 1019.9
20220627120831 75 18 0.0 4.3 0.00 0.00 0.00 66 1019.9
20220627120326 75 18 0.9 7.0 0.00 0.00 0.00 65 1019.9
20220627115819 75 14 0.9 7.0 0.00 0.00 0.00 65 1019.8
20220627115319 75 18 0.9 11.3 0.00 0.00 0.00 65 1019.8
20220627114813 75 18 0.9 11.3 0.00 0.00 0.00 64 1019.8
20220627114326 75 18 0.9 7.0 0.00 0.00 0.00 64 1019.7
20220627113821 75 18 0.9 7.8 0.00 0.00 0.00 64 1019.7
20220627113316 75 18 0.9 9.6 0.00 0.00 0.00 64 1019.7
20220627112832 75 18 1.7 9.6 0.00 0.00 0.00 64 1019.6
20220627112326 75 18 0.9 7.8 0.00 0.00 0.00 64 1019.6
20220627111814 75 18 0.9 9.6 0.00 0.00 0.00 63 1019.6
20220627111326 75 18 0.9 9.6 0.00 0.00 0.00 64 1019.7
20220627110820 75 18 1.7 7.0 0.00 0.00 0.00 64 1019.6
20220627110316 75 18 0.0 7.8 0.00 0.00 0.00 64 1019.6
20220627105833 75 18 0.9 7.8 0.00 0.00 0.00 64 1019.6
20220627105326 75 18 0.9 5.2 0.00 0.00 0.00 64 1019.5
20220627104820 75 18 0.9 5.2 0.00 0.00 0.00 64 1019.5
20220627104312 75 18 0.0 2.6 0.00 0.00 0.00 65 1019.5
20220627103834 75 18 0.0 3.5 0.00 0.00 0.00 64 1019.5
20220627103327 75 14 0.0 3.5 0.00 0.00 0.00 64 1019.3
20220627102821 75 18 0.0 3.5 0.00 0.00 0.00 63 1019.4
20220627102315 75 18 0.0 5.2 0.00 0.00 0.00 63 1019.3
20220627101833 75 14 0.0 5.2 0.00 0.00 0.00 63 1019.3
20220627101325 75 14 0.9 4.3 0.00 0.00 0.00 62 1019.3
20220627100820 75 18 0.0 3.5 0.00 0.00 0.00 62 1019.3
20220627100319 75 18 0.9 3.5 0.00 0.00 0.00 62 1019.4
20220627095832 75 18 0.0 4.3 0.00 0.00 0.00 62 1019.4
20220627095324 75 18 0.9 5.2 0.00 0.00 0.00 62 1019.4
20220627094820 76 18 0.0 7.8 0.00 0.00 0.00 61 1019.3
20220627094332 76 18 0.0 5.2 0.00 0.00 0.00 61 1019.4
20220627093824 76 18 0.9 5.2 0.00 0.00 0.00 61 1019.3
20220627093320 76 14 0.9 3.5 0.00 0.00 0.00 62 1019.3
20220627092815 76 14 0.0 2.6 0.00 0.00 0.00 62 1019.4
20220627092314 76 14 0.0 1.7 0.00 0.00 0.00 62 1019.5
20220627091830 76 14 0.0 3.5 0.00 0.00 0.00 61 1019.4
20220627091322 76 14 0.9 11.3 0.00 0.00 0.00 61 1019.4
20220627090818 77 14 0.9 5.2 0.00 0.00 0.00 61 1019.3
20220627090334 77 14 0.0 7.0 0.00 0.00 0.00 61 1019.4
20220627085827 77 18 1.7 7.0 0.00 0.00 0.00 60 1019.3
20220627085321 77 14 0.0 5.2 0.00 0.00 0.00 60 1019.3
20220627084817 77 14 0.9 8.7 0.00 0.00 0.00 60 1019.2
20220627084331 77 14 0.9 8.7 0.00 0.00 0.00 59 1019.3
20220627083822 77 18 0.0 7.8 0.00 0.00 0.00 60 1019.4
20220627083317 77 18 1.7 7.8 0.00 0.00 0.00 61 1019.3
20220627082830 77 14 1.7 10.4 0.00 0.00 0.00 62 1019.2
20220627082324 78 18 3.5 10.4 0.00 0.00 0.00 63 1019.2
20220627081819 78 18 2.6 8.7 0.00 0.00 0.00 63 1019.1
20220627081314 78 18 1.7 7.0 0.00 0.00 0.00 64 1019.1
20220627080834 78 18 0.9 7.0 0.00 0.00 0.00 65 1019.1
20220627080326 79 18 0.9 7.8 0.00 0.00 0.00 66 1019.1
20220627075821 79 18 0.9 7.8 0.00 0.00 0.00 67 1019.1
20220627075316 79 18 0.9 7.8 0.00 0.00 0.00 67 1019.1
20220627074832 79 23 0.9 7.8 0.00 0.00 0.00 67 1019.0
20220627074322 79 23 0.9 8.7 0.00 0.00 0.00 68 1019.0
20220627073815 80 23 0.9 8.7 0.00 0.00 0.00 69 1018.9
20220627073315 80 23 0.9 7.0 0.00 0.00 0.00 69 1018.9
20220627072831 80 23 0.0 7.0 0.00 0.00 0.00 70 1019.0
20220627072322 80 23 1.7 7.8 0.00 0.00 0.00 70 1019.0
20220627071831 81 23 1.7 7.8 0.00 0.00 0.00 70 1019.1
20220627071324 81 23 0.0 3.5 0.00 0.00 0.00 70 1019.1
20220627070819 81 23 0.0 5.2 0.00 0.00 0.00 70 1019.0
20220627070315 81 23 0.9 5.2 0.00 0.00 0.00 70 1019.0
20220627065827 81 32 0.0 1.7 0.00 0.00 0.00 69 1019.1
20220627065327 81 32 0.0 1.7 0.00 0.00 0.00 69 1019.1
20220627064822 81 32 0.0 4.3 0.00 0.00 0.00 69 1019.1
20220627064315 82 23 0.0 5.2 0.00 0.00 0.00 69 1019.1
20220627063832 82 23 0.9 5.2 0.00 0.00 0.00 68 1019.1
20220627063326 82 28 0.0 3.5 0.00 0.00 0.00 68 1019.0
20220627062820 82 28 0.0 2.6 0.00 0.00 0.00 69 1019.1
20220627062315 82 28 0.0 7.8 0.00 0.00 0.00 69 1019.2
20220627061814 82 28 0.9 7.8 0.00 0.00 0.00 69 1019.2
20220627061331 82 28 0.0 3.5 0.00 0.00 0.00 68 1019.1
20220627060824 82 28 0.0 5.2 0.00 0.00 0.00 68 1019.2
20220627060316 82 28 0.9 5.2 0.00 0.00 0.00 68 1019.1
20220627055833 82 28 0.0 3.5 0.00 0.00 0.00 68 1019.1
20220627055325 82 28 0.0 5.2 0.00 0.00 0.00 67 1019.2
20220627054820 82 32 0.9 5.2 0.00 0.00 0.00 67 1019.1
20220627054314 82 32 0.9 8.7 0.00 0.00 0.00 66 1019.1
20220627053833 83 28 0.0 8.7 0.00 0.00 0.00 66 1019.0
20220627053327 83 28 0.9 8.7 0.00 0.00 0.00 66 1019.0
20220627052818 83 28 0.9 8.7 0.00 0.00 0.00 66 1019.0
20220627052314 83 28 0.0 7.8 0.00 0.00 0.00 65 1019.0
20220627051830 83 23 0.0 7.8 0.00 0.00 0.00 65 1018.9
20220627051322 83 23 0.9 11.3 0.00 0.00 0.00 65 1019.0
20220627050818 83 28 3.5 11.3 0.00 0.00 0.00 65 1018.9
20220627050334 83 23 0.9 8.7 0.00 0.00 0.00 65 1019.0
20220627045832 84 23 1.7 12.2 0.00 0.00 0.00 64 1019.0
20220627045325 84 23 0.9 12.2 0.00 0.00 0.00 64 1019.0
20220627044820 84 23 1.7 13.0 0.00 0.00 0.00 64 1019.0
20220627044314 84 23 2.6 13.0 0.00 0.00 0.00 64 1018.9
20220627043826 84 23 3.5 12.2 0.00 0.00 0.00 63 1018.8
20220627043321 84 18 2.6 12.2 0.00 0.00 0.00 63 1018.8
20220627042815 84 18 2.6 13.0 0.00 0.00 0.00 63 1018.8
20220627042315 84 18 4.3 13.0 0.00 0.00 0.00 63 1018.6
20220627041827 85 18 4.3 13.0 0.00 0.00 0.00 62 1018.8
20220627041321 85 14 3.5 13.0 0.00 0.00 0.00 63 1018.6
20220627040815 85 9 1.7 14.8 0.00 0.00 0.00 63 1018.5
20220627040332 85 8 3.5 14.8 0.00 0.00 0.00 63 1018.5
20220627035824 85 8 1.7 10.4 0.00 0.00 0.00 63 1018.4
20220627035318 86 7 2.6 12.2 0.00 0.00 0.00 64 1018.3
20220627034832 86 7 2.6 12.2 0.00 0.00 0.00 65 1018.2
20220627034331 86 8 2.6 12.2 0.00 0.00 0.00 65 1018.1
20220627033825 86 7 1.7 11.3 0.00 0.00 0.00 66 1018.1
20220627033321 86 5 0.9 13.9 0.00 0.00 0.00 65 1018.1
20220627032813 86 5 0.9 14.8 0.00 0.00 0.00 65 1018.0
20220627032329 86 350 6.1 14.8 0.00 0.00 0.00 64 1018.1
20220627031823 87 341 2.6 16.5 0.00 0.00 0.00 65 1018.0
20220627031317 87 335 4.3 16.5 0.00 0.00 0.00 65 1018.0
20220627030814 87 327 0.9 12.2 0.00 0.00 0.00 65 1017.7
20220627030329 87 327 3.5 11.3 0.00 0.00 0.00 65 1017.6
20220627025823 87 325 2.6 10.4 0.00 0.00 0.00 64 1017.5
20220627025318 88 323 1.7 11.3 0.00 0.00 0.00 64 1017.5
20220627024812 88 322 1.7 13.0 0.00 0.00 0.00 63 1017.4
20220627024328 88 319 2.6 13.0 0.00 0.00 0.00 63 1017.3
20220627023823 88 315 3.5 10.4 0.00 0.00 0.00 63 1017.4
20220627023318 88 314 1.7 10.4 0.00 0.00 0.00 63 1017.3
20220627022816 89 313 2.6 10.4 0.00 0.00 0.00 63 1017.2
20220627022330 89 311 2.6 15.6 0.00 0.00 0.00 62 1017.2
20220627021824 90 278 3.5 13.0 0.00 0.00 0.00 61 1017.3
20220627021312 90 265 2.6 13.0 0.00 0.00 0.00 61 1017.1
20220627020826 90 261 1.7 9.6 0.00 0.00 0.00 61 1017.0
20220627020320 91 261 3.5 9.6 0.00 0.00 0.00 60 1016.9
20220627015813 91 230 2.6 9.6 0.00 0.00 0.00 59 1016.8
20220627015311 91 226 2.6 8.7 0.00 0.00 0.00 58 1016.5
20220627014826 92 221 2.6 8.7 0.00 0.00 0.00 57 1016.4
20220627014319 92 211 3.5 9.6 0.00 0.00 0.00 57 1016.2
20220627013812 92 209 2.6 9.6 0.00 0.00 0.00 56 1016.0
20220627013327 92 207 2.6 7.8 0.00 0.00 0.00 55 1015.9
20220627012821 92 205 1.7 7.0 0.00 0.00 0.00 54 1015.8
20220627012315 93 207 1.7 7.0 0.00 0.00 0.00 54 1015.8
20220627011826 93 202 1.7 7.8 0.00 0.00 0.00 53 1015.6
20220627011324 93 202 0.9 7.8 0.00 0.00 0.00 52 1015.5
20220627010819 93 203 2.6 7.0 0.00 0.00 0.00 52 1015.5
20220627010314 94 203 0.9 7.8 0.00 0.00 0.00 51 1015.4
20220627005828 94 203 1.7 8.7 0.00 0.00 0.00 50 1015.4
20220627005322 94 202 1.7 8.7 0.00 0.00 0.00 49 1015.3
20220627004817 94 202 0.9 6.1 0.00 0.00 0.00 49 1015.2
20220627004312 94 200 0.9 7.8 0.00 0.00 0.00 49 1015.4
20220627003825 94 200 0.9 8.7 0.00 0.00 0.00 49 1015.2
20220627003325 95 201 0.9 6.1 0.00 0.00 0.00 49 1015.2
20220627002817 95 201 1.7 7.8 0.00 0.00 0.00 49 1015.1
20220627002312 95 201 1.7 7.8 0.00 0.00 0.00 47 1015.1
20220627001827 96 201 2.6 7.8 0.00 0.00 0.00 46 1015.1
20220627001322 97 201 2.6 7.8 0.00 0.00 0.00 45 1015.1
20220627000816 98 196 0.9 3.5 0.00 0.00 0.00 42 1015.0
20220627000332 99 197 0.0 5.2 0.00 0.00 0.00 40 1015.0
20220626235831 99 197 0.9 6.1 0.00 0.00 0.00 35 1014.9
20220626235326 99 197 0.9 6.1 0.00 0.00 0.00 34 1014.8
20220626234821 99 197 0.9 5.2 0.00 0.00 0.00 32 1014.8
20220626234315 99 197 0.0 2.6 0.00 0.00 0.00 32 1014.7
20220626233830 100 197 0.0 3.5 0.00 0.00 0.00 31 1014.7
20220626233323 99 197 0.0 3.5 0.00 0.00 0.00 33 1014.7
20220626232817 99 197 0.0 4.3 0.00 0.00 0.00 33 1014.7
20220626232315 100 197 0.9 5.2 0.00 0.00 0.00 33 1014.7
20220626231829 100 197 0.9 5.2 0.00 0.00 0.00 32 1014.7
20220626231324 100 197 0.0 4.3 0.00 0.00 0.00 32 1014.6
20220626230818 100 197 0.9 4.3 0.00 0.00 0.00 32 1014.6
20220626230313 100 197 0.0 6.1 0.00 0.00 0.00 33 1014.6
20220626225825 100 197 3.5 5.2 0.00 0.00 0.00 31 1014.6
20220626225320 100 196 0.0 3.5 0.00 0.00 0.00 31 1014.6
20220626224814 100 196 0.0 6.1 0.00 0.00 0.00 31 1014.7
20220626224312 100 196 2.6 7.0 0.00 0.00 0.00 31 1014.7
20220626223827 101 194 2.6 7.0 0.00 0.00 0.00 30 1014.8
20220626223319 101 193 0.9 3.5 0.00 0.00 0.00 31 1014.8
20220626222815 101 193 0.9 3.5 0.00 0.00 0.00 30 1014.8
20220626222329 101 193 0.9 3.5 0.00 0.00 0.00 30 1014.9
20220626221823 102 193 0.0 1.7 0.00 0.00 0.00 31 1014.9
20220626221318 102 193 0.0 1.7 0.00 0.00 0.00 29 1015.0
20220626220816 103 193 0.0 4.3 0.00 0.00 0.00 30 1014.9
20220626220331 103 193 0.0 4.3 0.00 0.00 0.00 30 1015.0
20220626215826 103 194 0.0 1.7 0.00 0.00 0.00 27 1015.1
20220626215321 102 194 0.0 3.5 0.00 0.00 0.00 26 1015.1
20220626214815 102 194 0.0 3.5 0.00 0.00 0.00 28 1015.2
20220626214330 101 194 0.0 3.5 0.00 0.00 0.00 29 1015.2
20220626213825 101 194 0.9 4.3 0.00 0.00 0.00 28 1015.2
20220626213319 102 194 0.9 4.3 0.00 0.00 0.00 28 1015.2
20220626212817 103 193 0.0 4.3 0.00 0.00 0.00 27 1015.3
20220626212312 103 193 0.9 4.3 0.00 0.00 0.00 27 1015.3
20220626211827 104 193 0.9 3.5 0.00 0.00 0.00 28 1015.3
20220626211321 104 193 0.0 6.1 0.00 0.00 0.00 28 1015.4
20220626210814 104 193 0.0 6.1 0.00 0.00 0.00 29 1015.3
20220626210328 103 193 0.9 5.2 0.00 0.00 0.00 28 1015.3
20220626205822 103 193 0.9 4.3 0.00 0.00 0.00 25 1015.4
20220626205321 103 193 0.0 4.3 0.00 0.00 0.00 29 1015.5
20220626204816 103 193 0.9 4.3 0.00 0.00 0.00 29 1015.6
20220626204331 103 193 0.0 3.5 0.00 0.00 0.00 29 1015.6
20220626203825 103 193 0.0 3.5 0.00 0.00 0.00 29 1015.6
20220626203318 103 193 0.9 4.3 0.00 0.00 0.00 30 1015.7
20220626202831 103 193 0.0 2.6 0.00 0.00 0.00 31 1015.7
20220626202325 103 193 0.0 8.7 0.00 0.00 0.00 33 1015.8
20220626201820 103 193 0.9 8.7 0.00 0.00 0.00 33 1015.9